Date,TemperatureHighF,TemperatureAvgF,TemperatureLowF,DewpointHighF,DewpointAvgF,DewpointLowF,HumidityHigh,HumidityAvg,HumidityLow,PressureMaxIn,PressureMinIn,WindSpeedMaxMPH,WindSpeedAvgMPH,GustSpeedMaxMPH,PrecipitationSumIn
2013-9-1,71.0,67.3,66.0,57.3,36.2,33.6,62,32,29,28.65,28.64,5,0,9,0.00
2013-9-2,82.0,69.2,59.0,65.9,53.9,19.9,100,62,21,28.88,28.65,10,2,15,0.00
2013-9-3,81.0,64.9,54.0,64.4,54.5,23.3,100,72,27,28.97,28.82,10,2,13,0.00
2013-9-4,88.0,69.2,53.0,67.0,51.2,-37.5,100,57,1,29.03,28.86,9,1,11,0.00
2013-9-5,90.0,75.5,61.0,71.8,64.2,53.6,100,72,38,29.03,28.90,8,2,10,0.00
2013-9-6,85.0,72.1,60.0,67.0,63.6,60.0,100,78,49,29.05,28.83,13,5,17,0.00
2013-9-7,89.0,76.0,64.0,73.8,67.6,62.7,100,78,49,28.88,28.67,14,4,19,0.01
2013-9-8,76.0,71.2,69.0,73.4,57.0,8.5,99,68,9,28.77,28.73,15,5,23,0.41
2013-9-9,93.0,81.1,70.0,76.4,63.2,13.7,100,59,11,28.76,28.61,14,6,17,0.00
2013-9-10,91.0,80.6,71.0,71.1,67.8,64.6,86,67,45,28.87,28.74,16,6,21,0.00
2013-9-11,89.0,78.3,71.0,72.1,68.0,64.5,100,72,49,28.91,28.79,14,4,19,0.00
2013-9-12,81.0,71.0,57.0,72.4,43.7,-1.8,100,45,6,28.99,28.81,15,3,20,0.37
2013-9-13,57.0,54.1,52.0,53.9,52.6,50.3,100,95,83,29.06,28.98,9,2,11,0.00
2013-9-14,61.0,49.9,44.0,53.0,44.9,30.7,100,84,53,29.08,29.02,7,2,10,0.00
2013-9-15,61.0,58.4,56.0,56.7,51.3,49.1,89,77,73,28.89,28.85,11,4,17,0.01
2013-9-16,72.0,60.8,53.0,57.0,52.3,44.6,100,75,53,29.18,29.07,12,5,18,0.00
2013-9-17,73.0,60.9,50.0,61.6,54.5,41.3,100,81,60,29.20,28.94,11,4,14,0.00
2013-9-18,69.0,63.3,61.0,67.5,60.8,57.7,100,92,83,28.95,28.86,13,3,17,0.00
2013-9-19,81.0,69.8,66.0,71.0,59.2,26.0,100,76,22,28.79,28.71,20,6,21,1.17
2013-9-20,71.0,66.7,65.0,66.0,30.8,0.0,100,38,7,28.76,28.68,13,5,18,0.11
2013-9-21,51.0,49.2,48.0,46.6,41.5,34.8,85,75,60,28.83,28.79,7,2,7,0.00
2013-9-22,75.0,60.8,48.0,56.7,50.3,45.4,100,72,38,28.91,28.76,10,3,12,0.00
2013-9-23,75.0,59.8,46.0,53.0,49.7,44.1,100,73,40,28.96,28.77,14,4,18,0.00
2013-9-24,58.0,51.8,51.0,52.3,51.0,49.4,100,97,73,28.87,28.85,9,5,11,0.00
2013-9-25,58.0,54.4,51.0,55.7,54.1,51.0,100,99,91,28.87,28.75,6,4,10,0.00
2013-9-26,57.0,56.8,56.0,57.0,56.8,56.0,100,100,99,28.84,28.83,6,4,9,0.00
2013-9-27,59.0,57.2,57.0,52.5,52.3,50.5,85,84,76,28.97,28.93,6,3,9,0.00
2013-9-28,60.0,58.8,58.0,57.7,57.2,56.1,98,94,87,28.88,28.87,8,3,10,0.00
2013-9-29,74.0,60.1,47.0,61.0,41.2,-1.6,100,52,15,28.98,28.80,11,2,16,0.01
2013-9-30,76.0,63.0,49.0,57.3,52.3,44.7,100,71,41,28.89,28.67,12,3,19,0.00